Epoch 2003 Nov. 17.0 TT = JDT 2452960.5 T 2003 Nov. 3.39812 TT MPC q 1.7957083 (2000.0) P Q n 0.00900613 Peri. 278.38389 +0.69288375 +0.70262268 a 22.8793614 Node 322.76305 +0.72065570 -0.66738728 e 0.9215141 Incl. 164.47463 +0.02382144 -0.24681086 P 109.44
m1 = 14.1 + 5 logΔ + 10.0 log r